{"data":{"norad_id":59378,"epoch":"2026-05-24T17:48:20.013984Z","epoch_age_seconds":90536,"freshness":"FRESH","line1":"1 59378U 24062E   26144.74189831  .00000625  00000+0  33219-4 0  9998","line2":"2 59378  53.1610 262.5261 0001148  72.4661 287.6465 15.30189118121272","mean_motion":15.30189118,"eccentricity":0.0001148,"inclination_deg":53.161,"raan_deg":262.5261,"arg_perigee_deg":72.4661,"mean_anomaly_deg":287.6465,"bstar":3.3219e-5,"rev_number":12127,"period_min":94.106014940305,"perigee_km":474.46079275475,"apogee_km":476.03432985002,"semimajor_km":6853.3845613024,"source":"CELESTRAK","updated_at":"2026-05-25T13:38:18.914015Z"}}